Regional Weather Roundup
Issued by NWS

Home | Current Version | Previous Version | Text Only | Print | Product List | Glossary On
Versions: 1 2 3 4 5 6 7 8 9 10 11 12 13 14 15 16 17 18 19 20 21 22 23 24 25 26 27 28 29 30 31 32 33 34 35 36 37 38 39 40 41 42 43 44 45 46 47 48 49 50
000
ASUS44 KOUN 041010
RWROK

WEATHER ROUNDUP FOR OKLAHOMA
NATIONAL WEATHER SERVICE NORMAN OK
500 AM CDT SAT JUL 04 2015

NOTE: "FAIR" INDICATES FEW OR NO CLOUDS BELOW 12,000 FEET WITH NO
      SIGNIFICANT WEATHER AND/OR OBSTRUCTIONS TO VISIBILITY.

OKZ001>007-009>012-014-015-017-041100-
NORTHWEST OKLAHOMA AND THE PANHANDLE

CITY           SKY/WX    TMP DP  RH WIND       PRES   REMARKS
GAGE           MOCLDY    67  67 100 E3        29.99F
GUYMON         CLOUDY    65  62  90 S6        30.03R
ENID/WOODRING  CLEAR     70  66  88 E3        29.94F
$$

OKZ016-021>023-033>039-044-045-041100-
SOUTHWEST OKLAHOMA

CITY           SKY/WX    TMP DP  RH WIND       PRES   REMARKS
LAWTON/REGL    MOCLDY    72  67  84 CALM      29.93F
LAWTON/FT SILL MOCLDY    70  69  98 NE2       29.92F
FREDERICK      MOCLDY    72  70  93 N6        29.91S
CLINTON        MOCLDY    71  66  84 W5        29.98F
HOBART         PTCLDY    69  66  90 NE5       29.96F
ALTUS AFB      PTCLDY    69  69 100 NE7       29.94S
$$

OKZ018>020-024>031-041100-
CENTRAL OKLAHOMA

CITY           SKY/WX    TMP DP  RH WIND       PRES   REMARKS
OKLAHOMA CITY  PTCLDY    70  68  93 SE7       29.94F
OKC/WILEY POST CLEAR     74  68  81 CALM      29.94F
OKC/TINKER AFB CLEAR     71  69  91 SE8       29.94S
STILLWATER     CLEAR     70  67  90 NE5       29.94F
GUTHRIE        CLEAR     71  69  93 E3        29.94F
$$

OKZ008-013-054>072-041100-
NORTHEAST OKLAHOMA

CITY           SKY/WX    TMP DP  RH WIND       PRES   REMARKS
TULSA          CLEAR     70  69  97 NW5       29.94R
TULSA/JONES    CLEAR     72  70  93 CALM      29.92F
PONCA CITY     CLEAR     66  64  93 N5        29.96S FOG
BARTLESVILLE   CLEAR     68  68 100 CALM      29.96S
MUSKOGEE       PTCLDY    70  68  93 CALM      29.93S
$$

OKZ032-040>043-046>053-073>077-041100-
SOUTH CENTRAL/SOUTHEAST OKLAHOMA

CITY           SKY/WX    TMP DP  RH WIND       PRES   REMARKS
ARDMORE/DWNTWN PTCLDY    72  70  94 CALM      29.93S
MCALESTER      CLEAR     70  68  93 CALM      29.93S
$$



USA.gov is the U.S. government's official web portal to all federal, state and local government web resources and services.